This demonstration page uses our WeatherBlox Daily Observations layout. Learn more.

Left ArrowRight Arrow

40.92945, -100.16068

Hourly Observations for March 14, 2021

Temp ( °F °C ) Dew Point ( °F °C ) Humidity (%) Winds ( mph kmh ) Pressure ( in mb ) Visibility ( mi km ) Precip ( " mm )
12:18 am 00:18 Cloudy with Light Rain 41 5 41 5 100 100 E 22 35 30.05 1018 5 8 0.03 0.76
12:37 am 00:37 Cloudy with Rain 43 6 41 5 93 93 ENE 21 33 30.03 1017 5 8 0.08 2.03
1:19 am 01:19 Cloudy with Light Rain 43 6 41 5 93 93 E 20 31 30.03 1017 7 11 0.04 1.02
3:17 am 03:17 Cloudy 43 6 41 5 93 93 E 29 46 29.97 1015 10 16 N/A
3:39 am 03:39 Cloudy with Light Rain 43 6 41 5 93 93 E 23 37 29.96 1015 10 16 0.01 0.25
3:57 am 03:57 Cloudy 43 6 41 5 93 93 E 23 37 29.95 1014 10 16 0.01 0.25
4:15 am 04:15 Cloudy with Light Rain 41 5.1 40 4.5 96 96 E 26 43 29.96 1014 7 11 N/A
4:35 am 04:35 Cloudy with Light Rain 41 5 40 4.3 95 95 E 26 43 29.95 1014 7 11 N/A
4:55 am 04:55 Cloudy with Light Rain 41 4.8 40 4.2 96 96 E 23 37 29.95 1014 7 11 0.01 0.25
5:15 am 05:15 Cloudy with Light Rain 41 4.8 40 4.2 96 96 E 28 44 29.91 1013 5 8 0.01 0.25
5:35 am 05:35 Cloudy with Light Rain 41 4.8 40 4.2 96 96 E 25 41 29.90 1013 5 8 0.02 0.51
5:55 am 05:55 Cloudy with Light Rain 41 4.8 39 4.1 95 95 E 26 43 29.90 1013 5 8 0.04 1.02
6:15 am 06:15 Cloudy with Rain 40 4.7 39 4.1 96 96 E 28 44 29.88 1012 5 8 0.02 0.51
6:35 am 06:35 Cloudy with Light Rain 40 4.7 39 4.1 96 96 E 29 46 29.87 1012 5 8 0.03 0.76
6:55 am 06:55 Cloudy with Light Rain 40 4.5 39 4 97 97 E 29 46 29.86 1011 5 8 0.04 1.02
7:15 am 07:15 Cloudy with Rain 40 4.2 39 3.7 97 97 E 31 50 29.86 1011 2 3 0.07 1.78
7:35 am 07:35 Cloudy with Light Rain 40 4.2 39 3.7 97 97 E 28 44 29.85 1011 5 8 0.11 2.79
7:55 am 07:55 Cloudy 40 4.5 39 4 97 97 E 39 63 29.81 1010 10 16 0.11 2.79
8:15 am 08:15 Cloudy with Rain 39 4.1 38 3.6 97 97 E 33 54 29.83 1010 3 5 0.05 1.27
8:35 am 08:35 Cloudy with Light Rain 39 4 38 3.6 97 97 E 36 57 29.81 1009 3 4 0.11 2.79
8:55 am 08:55 Cloudy with Light Rain 40 4.2 39 3.8 97 97 E 33 54 29.82 1010 3 5 0.12 3.05
9:15 am 09:15 Cloudy with Rain 40 4.3 39 4 98 98 E 32 52 29.81 1010 2 3 0.01 0.25
9:35 am 09:35 Cloudy with Light Rain 40 4.5 39 4 97 97 E 33 54 29.80 1009 3 5 0.05 1.27
9:55 am 09:55 Cloudy with Rain 40 4.5 39 4 97 97 E 35 56 29.79 1009 3 4 0.10 2.54
10:15 am 10:15 Cloudy with Light Rain 40 4.3 39 4 98 98 E 35 56 29.79 1009 3 5 0.04 1.02
10:35 am 10:35 Cloudy with Light Rain 40 4.5 39 4 97 97 E 30 48 29.80 1009 5 8 0.04 1.02
10:55 am 10:55 Cloudy with Light Rain 40 4.3 39 4 98 98 E 35 56 29.81 1010 4 6 0.04 1.02
11:15 am 11:15 Cloudy with Light Rain 40 4.4 39 4 97 97 E 35 56 29.81 1010 2 3 0.01 0.25
11:35 am 11:35 Cloudy with Light Rain 40 4.2 39 3.8 97 97 E 23 37 29.84 1010 2 2 0.03 0.76
11:55 am 11:55 Cloudy with Light Rain 39 4.1 39 3.7 97 97 E 28 44 29.84 1010 2 3 0.05 1.27
12:15 pm 12:15 Windy with Snow Likely 39 4.1 39 3.7 97 97 E 31 50 29.84 1010 2 3 N/A
12:35 pm 12:35 Cloudy with Light Rain 39 4 38 3.5 97 97 E 26 43 29.85 1011 3 4 0.02 0.51
12:55 pm 12:55 Cloudy with Light Rain 39 3.7 38 3.3 97 97 E 25 41 29.86 1011 5 8 0.02 0.51
1:15 pm 13:15 Cloudy with Mist and Fog 39 4 38 3.5 97 97 E 29 46 29.85 1011 5 8 N/A
1:35 pm 13:35 Cloudy 39 4 38 3.5 97 97 E 26 43 29.84 1010 7 11 N/A
1:55 pm 13:55 Cloudy 39 4.1 39 3.7 97 97 E 28 44 29.85 1011 10 16 N/A
2:15 pm 14:15 Cloudy 40 4.3 39 4 98 98 E 23 37 29.83 1010 10 16 N/A
2:35 pm 14:35 Cloudy 40 4.5 39 4 97 97 E 25 41 29.82 1010 10 16 N/A
2:55 pm 14:55 Cloudy 40 4.7 40 4.2 97 97 E 26 43 29.83 1010 10 16 N/A
3:15 pm 15:15 Cloudy 40 4.5 39 4 97 97 E 22 35 29.82 1010 10 16 N/A
3:35 pm 15:35 Cloudy with Mist and Fog 40 4.5 39 4.1 97 97 E 23 37 29.81 1010 3 5 N/A
3:55 pm 15:55 Windy with Snow Likely 40 4.5 39 4.1 97 97 E 25 41 29.81 1010 2 3 N/A
4:15 pm 16:15 Cloudy with Mist and Fog 40 4.5 39 4.1 97 97 E 23 37 29.81 1010 2 3 N/A
4:35 pm 16:35 Windy with Snow Likely 40 4.5 40 4.2 98 98 E 22 35 29.81 1010 2 3 N/A
4:55 pm 16:55 Cloudy with Mist and Fog 40 4.5 40 4.2 98 98 E 21 33 29.82 1010 2 3 N/A
5:15 pm 17:15 Windy with Snow Likely 40 4.5 39 4.1 97 97 E 24 39 29.83 1010 2 3 N/A
5:35 pm 17:35 Windy with Snow Likely 40 4.5 39 4.1 97 97 E 21 33 29.83 1010 3 5 N/A
5:55 pm 17:55 Cloudy with Mist and Fog 40 4.5 40 4.2 98 98 E 21 33 29.83 1010 3 5 N/A
6:15 pm 18:15 Windy with Snow Likely 40 4.5 40 4.2 98 98 E 22 35 29.83 1010 2 3 N/A
6:35 pm 18:35 Cloudy with Mist and Fog 40 4.4 39 4 97 97 E 21 33 29.83 1010 2 3 N/A
6:55 pm 18:55 Cloudy with Mist and Fog 39 4.1 39 3.8 98 98 E 20 31 29.84 1010 2 3 N/A
7:15 pm 19:15 Cloudy with Mist and Fog 39 4 38 3.6 97 97 E 24 39 29.86 1011 3 4 N/A
7:35 pm 19:35 Cloudy with Mist and Fog 39 3.8 38 3.5 98 98 E 17 28 29.86 1011 3 4 N/A
7:55 pm 19:55 Cloudy with Mist and Fog 38 3.6 38 3.3 98 98 E 20 31 29.86 1011 2 3 N/A
8:15 pm 20:15 Cloudy with Mist and Fog 38 3.6 38 3.3 98 98 E 17 28 29.88 1012 2 3 N/A
8:35 pm 20:35 Cloudy with Mist and Fog 38 3.5 38 3.2 98 98 ENE 18 30 29.88 1012 2 3 N/A
8:55 pm 20:55 Cloudy with Mist and Fog 38 3.5 38 3.1 97 97 ENE 18 30 29.88 1012 2 3 N/A
9:15 pm 21:15 Cloudy with Mist and Fog 38 3.5 38 3.2 98 98 E 15 24 29.88 1012 2 3 N/A
9:35 pm 21:35 Cloudy with Mist and Fog 38 3.5 38 3.2 98 98 E 17 28 29.89 1012 2 3 N/A
9:55 pm 21:55 Cloudy with Mist and Fog 38 3.5 38 3.2 98 98 E 20 31 29.88 1012 2 3 N/A
10:15 pm 22:15 Cloudy with Mist and Fog 38 3.5 38 3.2 98 98 E 16 26 29.89 1012 3 4 N/A
10:35 pm 22:35 Cloudy with Mist and Fog 38 3.6 38 3.2 97 97 E 15 24 29.89 1012 3 4 N/A
10:55 pm 22:55 Cloudy with Mist and Fog 38 3.6 38 3.2 97 97 E 15 24 29.88 1012 3 4 N/A
11:15 pm 23:15 Cloudy with Mist and Fog 38 3.6 38 3.2 97 97 E 14 22 29.88 1012 3 5 N/A
11:35 pm 23:35 Cloudy with Mist and Fog 38 3.6 38 3.2 97 97 E 14 22 29.88 1012 2 3 N/A
11:55 pm 23:55 Cloudy with Mist and Fog 39 3.7 38 3.3 97 97 E 13 20 29.88 1012 3 4 N/A

Powered by AerisWeather